Lincoln, IL

7:32 AM CST on February 24, 2017 (GMT -0600)
Lincoln

Weather History for KAAA - April, 2014

Change the Weather History Date:

Wednesday, April 16, 2014

  Actual Average (KSPI) Record (KSPI)
Temperature  
Mean Temperature 43 °F -  
Max Temperature 55 °F 65 °F 88 °F (2002)
Min Temperature 31 °F 44 °F 26 °F (1962)
Degree Days  
Heating Degree Days 22    
Moisture  
Dew Point 28 °F    
Average Humidity 58    
Maximum Humidity 82    
Minimum Humidity 33    
Precipitation  
Precipitation 0.00 in - - ()
Sea Level Pressure  
Sea Level Pressure 30.19 in    
Wind  
Wind Speed 10 mph (SSE)    
Max Wind Speed 26 mph    
Max Gust Speed 33 mph    
Visibility 10 miles    
Events      
Averages and records for this station are not official NWS values.
T = Trace of Precipitation, MM = Missing Value Source: NWS Daily Summary

Daily Weather History Graph

Daily Weather History Graph

Search for Another Location

Airport or City:

Trip Planner

Search our weather history database for the weather conditions in past years. The results will help you decide how hot, cold, wet, or windy it might be!

Date:

Astronomy

Apr. 16, 2014 Rise Set
Actual Time 6:17 AM CDT 7:37 PM CDT
Civil Twilight 5:49 AM CDT 8:05 PM CDT
Nautical Twilight 5:15 AM CDT 8:39 PM CDT
Astronomical Twilight 4:40 AM CDT 9:14 PM CDT
Moon 9:20 PM CDT (4/16) 7:05 AM CDT (4/16)
Length of Visible Light 14h 15m
Length of Day
13h 19m
Full, 98% of the Moon is Illuminated
Apr 16
Full
Apr 22
Last Quarter
Apr 29
New
May 6
First Quarter
May 14
Full

Hourly Weather History & Observations

Time (CDT) Temp. Windchill Dew Point Humidity Pressure Visibility Wind Dir Wind Speed Gust Speed Precip Events Conditions
12:15 AM 32.7 °F - 25.2 °F 74% 30.22 in 10.0 mi Calm Calm - N/A   Clear
12:35 AM 32.5 °F 29.3 °F 24.8 °F 73% 30.22 in 10.0 mi SSE 3.5 mph - N/A   Clear
12:55 AM 32.5 °F 28.1 °F 25.3 °F 75% 30.22 in 10.0 mi SSE 4.6 mph - N/A   Clear
1:15 AM 32.0 °F 28.7 °F 25.7 °F 78% 30.22 in 10.0 mi SE 3.5 mph - N/A   Clear
1:35 AM 31.8 °F 28.5 °F 25.7 °F 78% 30.23 in 10.0 mi SSE 3.5 mph - N/A   Clear
1:55 AM 32.0 °F 28.7 °F 25.9 °F 78% 30.22 in 10.0 mi SSE 3.5 mph - N/A   Clear
2:15 AM 32.0 °F 27.5 °F 26.2 °F 79% 30.23 in 10.0 mi SSE 4.6 mph - N/A   Clear
2:35 AM 32.0 °F 26.4 °F 26.4 °F 80% 30.23 in 10.0 mi SSE 5.8 mph - N/A   Clear
2:55 AM 32.0 °F 26.4 °F 26.6 °F 80% 30.23 in 10.0 mi SSE 5.8 mph - N/A   Clear
3:15 AM 32.0 °F 28.7 °F 26.4 °F 80% 30.23 in 10.0 mi SSE 3.5 mph - N/A   Clear
3:35 AM 32.0 °F 26.4 °F 26.8 °F 81% 30.24 in 10.0 mi SSE 5.8 mph - N/A   Clear
3:55 AM 31.8 °F 25.4 °F 27.0 °F 82% 30.24 in 10.0 mi SSE 6.9 mph - N/A   Clear
4:15 AM 31.8 °F 26.2 °F 26.8 °F 82% 30.24 in 10.0 mi SSE 5.8 mph - N/A   Clear
4:35 AM 32.0 °F 24.8 °F 27.0 °F 82% 30.24 in 10.0 mi SSE 8.1 mph - N/A   Clear
4:55 AM 32.0 °F 24.2 °F 26.6 °F 80% 30.24 in 10.0 mi SSE 9.2 mph - N/A   Clear
5:15 AM 32.2 °F 25.0 °F 26.6 °F 80% 30.24 in 10.0 mi SSE 8.1 mph - N/A   Clear
5:35 AM 32.0 °F 24.8 °F 26.6 °F 80% 30.24 in 10.0 mi SSE 8.1 mph - N/A   Clear
5:55 AM 32.2 °F 25.0 °F 26.6 °F 80% 30.25 in 10.0 mi SSE 8.1 mph - N/A   Clear
6:15 AM 32.0 °F 24.8 °F 26.6 °F 80% 30.25 in 10.0 mi SSE 8.1 mph - N/A   Clear
6:35 AM 32.0 °F 25.6 °F 27.0 °F 82% 30.26 in 10.0 mi SSE 6.9 mph - N/A   Clear
6:55 AM 32.7 °F 25.0 °F 27.1 °F 80% 30.26 in 10.0 mi SSE 9.2 mph - N/A   Clear
7:15 AM 34.2 °F 25.7 °F 27.9 °F 78% 30.27 in 10.0 mi SSE 11.5 mph - N/A   Clear
7:35 AM 35.6 °F 27.5 °F 28.2 °F 75% 30.27 in 10.0 mi SSE 11.5 mph - N/A   Clear
7:55 AM 37.2 °F 28.3 °F 28.2 °F 70% 30.27 in 10.0 mi SSE 15.0 mph 19.6 mph N/A   Clear
8:15 AM 38.8 °F 30.4 °F 28.4 °F 66% 30.28 in 10.0 mi SSE 15.0 mph 21.9 mph N/A   Clear
8:35 AM 40.1 °F 32.0 °F 28.9 °F 64% 30.28 in 10.0 mi SSE 15.0 mph 24.2 mph N/A   Clear
8:55 AM 41.7 °F 33.7 °F 28.4 °F 59% 30.28 in 10.0 mi South 16.1 mph 21.9 mph N/A   Clear
9:15 AM 42.6 °F 34.9 °F 28.0 °F 56% 30.28 in 10.0 mi SSE 16.1 mph 27.6 mph N/A   Clear
9:35 AM 43.9 °F 36.2 °F 28.2 °F 54% 30.27 in 10.0 mi South 17.3 mph 28.8 mph N/A   Clear
9:55 AM 45.0 °F 37.4 °F 29.1 °F 54% 30.26 in 10.0 mi SSE 18.4 mph 26.5 mph N/A   Clear
10:15 AM 45.9 °F 38.5 °F 28.0 °F 50% 30.27 in 10.0 mi SSE 18.4 mph 27.6 mph N/A   Clear
10:35 AM 46.9 °F - 28.6 °F 49% 30.26 in 10.0 mi SSE 21.9 mph 28.8 mph N/A   Clear
10:55 AM 47.7 °F - 28.6 °F 48% 30.26 in 10.0 mi SSE 21.9 mph 29.9 mph N/A   Clear
11:15 AM 48.4 °F - 29.3 °F 48% 30.26 in 10.0 mi SSE 21.9 mph 27.6 mph N/A   Clear
11:35 AM 49.3 °F - 29.5 °F 46% 30.25 in 10.0 mi SSE 26.5 mph 33.4 mph N/A   Clear
11:55 AM 49.1 °F - 28.0 °F 44% 30.24 in 10.0 mi SSE 19.6 mph 29.9 mph N/A   Clear
12:15 PM 50.5 °F - 29.5 °F 44% 30.23 in 10.0 mi South 17.3 mph 27.6 mph N/A   Clear
12:35 PM 50.9 °F - 28.6 °F 42% 30.23 in 10.0 mi SSE 23.0 mph 29.9 mph N/A   Clear
12:55 PM 51.3 °F - 29.5 °F 43% 30.22 in 10.0 mi South 18.4 mph 27.6 mph N/A   Clear
1:15 PM 52.3 °F - 29.5 °F 42% 30.20 in 10.0 mi SSE 23.0 mph 32.2 mph N/A   Clear
1:35 PM 52.5 °F - 28.6 °F 40% 30.19 in 10.0 mi South 20.7 mph 31.1 mph N/A   Clear
1:55 PM 53.2 °F - 29.7 °F 40% 30.18 in 10.0 mi SSE 23.0 mph 29.9 mph N/A   Clear
2:15 PM 53.6 °F - 28.2 °F 38% 30.17 in 10.0 mi SSE 21.9 mph 29.9 mph N/A   Clear
2:35 PM 54.3 °F - 28.2 °F 37% 30.16 in 10.0 mi SSE 21.9 mph 26.5 mph N/A   Clear
2:55 PM 54.3 °F - 27.9 °F 36% 30.14 in 10.0 mi South 19.6 mph 32.2 mph N/A   Clear
3:15 PM 55.0 °F - 27.9 °F 35% 30.14 in 10.0 mi SSE 23.0 mph 31.1 mph N/A   Clear
3:35 PM 54.9 °F - 27.9 °F 35% 30.12 in 10.0 mi SSE 23.0 mph 29.9 mph N/A   Clear
3:55 PM 55.2 °F - 28.2 °F 36% 30.12 in 10.0 mi SSE 20.7 mph 31.1 mph N/A   Clear
4:15 PM 55.4 °F - 27.7 °F 35% 30.11 in 10.0 mi SSE 20.7 mph 29.9 mph N/A   Clear
4:35 PM 55.8 °F - 27.5 °F 34% 30.10 in 10.0 mi SSE 23.0 mph 33.4 mph N/A   Clear
4:55 PM 55.4 °F - 27.1 °F 34% 30.09 in 10.0 mi South 20.7 mph 31.1 mph N/A   Clear
5:15 PM 55.6 °F - 27.1 °F 34% 30.08 in 10.0 mi SSE 20.7 mph 28.8 mph N/A   Clear
5:35 PM 55.0 °F - 26.1 °F 33% 30.08 in 10.0 mi SSE 20.7 mph 31.1 mph N/A   Clear
5:55 PM 54.0 °F - 25.7 °F 34% 30.07 in 10.0 mi SSE 21.9 mph 31.1 mph N/A   Clear
6:15 PM 53.6 °F - 26.8 °F 36% 30.08 in 10.0 mi SSE 16.1 mph 25.3 mph N/A   Clear
6:35 PM 52.7 °F - 26.4 °F 36% 30.08 in 10.0 mi SSE 19.6 mph 27.6 mph N/A   Clear
6:55 PM 52.0 °F - 26.4 °F 37% 30.07 in 10.0 mi SSE 17.3 mph 26.5 mph N/A   Clear
7:15 PM 50.9 °F - 28.9 °F 43% 30.08 in 10.0 mi SSE 13.8 mph 19.6 mph N/A   Clear
7:35 PM 50.0 °F - 30.2 °F 47% 30.08 in 10.0 mi SSE 13.8 mph 19.6 mph N/A   Clear
7:55 PM 48.6 °F - 29.3 °F 47% 30.08 in 10.0 mi SSE 13.8 mph - N/A   Clear
8:15 PM 47.3 °F - 30.0 °F 51% 30.10 in 10.0 mi SSE 10.4 mph - N/A   Clear
8:35 PM 46.8 °F - 30.2 °F 53% 30.09 in 10.0 mi SSE 13.8 mph - N/A   Clear
8:55 PM 46.4 °F 41.5 °F 30.7 °F 54% 30.10 in 10.0 mi SSE 10.4 mph - N/A   Clear
9:15 PM 45.7 °F 41.5 °F 30.9 °F 56% 30.12 in 10.0 mi SSE 8.1 mph - N/A   Clear
9:35 PM 45.3 °F 42.3 °F 31.1 °F 58% 30.14 in 10.0 mi South 5.8 mph - N/A   Clear
9:55 PM 44.8 °F 41.6 °F 31.1 °F 59% 30.15 in 10.0 mi South 5.8 mph - N/A   Clear
10:15 PM 41.7 °F 38.8 °F 31.3 °F 66% 30.15 in 10.0 mi SSE 4.6 mph - N/A   Clear
10:35 PM 40.6 °F 35.4 °F 31.8 °F 71% 30.14 in 10.0 mi SSE 8.1 mph - N/A   Clear
10:55 PM 41.0 °F 35.8 °F 32.0 °F 70% 30.14 in 10.0 mi SSE 8.1 mph - N/A   Clear
11:15 PM 41.0 °F 35.8 °F 32.0 °F 70% 30.14 in 10.0 mi SSE 8.1 mph - N/A   Clear
11:35 PM 41.0 °F 36.4 °F 32.0 °F 70% 30.14 in 10.0 mi SSE 6.9 mph - N/A   Clear
11:55 PM 40.3 °F 35.5 °F 32.0 °F 72% 30.14 in 10.0 mi SSE 6.9 mph - N/A   Clear